EW2112 Weather Reports


time (UTC)temp
F
wind
direction
speed
knots
gust
knots
rain 1hr
in
rain 24hr
in
rain mn
in
humidity
%
barometer
mb
20260831053021 78 111 1.7 4.3 0.00 0.00 0.00 47 1023.6
20260831051523 78 111 0.9 5.2 0.00 0.00 0.00 44 1023.6
20260831050020 78 138 0.9 4.3 0.00 0.00 0.00 44 1023.7
20260831044515 78 37 0.9 5.2 0.00 0.00 0.00 40 1023.8
20260831043013 78 166 2.6 7.8 0.00 0.00 0.00 42 1024.0
20260831041529 77 144 1.7 5.2 0.00 0.00 0.00 42 1024.1
20260831040011 79 90 2.6 5.2 0.00 0.00 0.00 40 1024.2
20260831034508 77 130 1.7 4.3 0.00 0.00 0.00 39 1024.3
20260831033006 77 244 0.9 2.6 0.00 0.00 0.00 42 1024.5
20260831031505 76 196 1.7 5.2 0.00 0.00 0.00 41 1024.7
20260831030108 76 322 2.6 6.1 0.00 0.00 0.00 41 1024.9
20260831024617 74 30 0.9 4.3 0.00 0.00 0.00 43 1025.2
20260831023053 74 131 1.7 5.2 0.00 0.00 0.00 41 1025.4
20260831021553 73 244 0.0 4.3 0.00 0.00 0.00 46 1025.7
20260831020047 72 9 2.6 6.1 0.00 0.00 0.00 48 1025.9
20260831014543 71 225 0.0 3.5 0.00 0.00 0.00 50 1026.3
20260831013040 70 355 0.0 3.5 0.00 0.00 0.00 52 1026.7
20260831011547 69 83 0.9 4.3 0.00 0.00 0.00 52 1027.0
20260831010036 68 328 0.0 3.5 0.00 0.00 0.00 56 1027.1
20260831004530 67 327 0.0 3.5 0.00 0.00 0.00 60 1027.3
20260831003033 66 313 0.9 2.6 0.00 0.00 0.00 62 1027.4
20260831001522 64 90 0.9 2.6 0.00 0.00 0.00 66 1027.4
20260831000019 63 17 0.0 3.5 0.00 0.00 0.00 68 1027.4
20260830234513 61 240 0.0 3.5 0.00 0.01 0.00 71 1027.4
20260830233019 60 300 1.7 3.5 0.00 0.01 0.00 73 1027.6
20260830231505 58 301 0.9 4.3 0.00 0.01 0.00 74 1027.5
20260830230001 57 335 0.9 3.5 0.00 0.01 0.00 76 1027.5
20260830224558 56 309 0.0 2.6 0.00 0.01 0.00 77 1027.7
20260830223130 55 286 0.9 3.5 0.00 0.01 0.00 77 1027.7
20260830221554 54 284 1.7 3.5 0.00 0.01 0.00 80 1027.6
20260830220048 53 291 0.0 2.6 0.00 0.01 0.00 82 1027.6
20260830214544 52 298 0.9 2.6 0.00 0.01 0.00 85 1027.3
20260830213040 50 298 0.0 2.6 0.00 0.01 0.00 90 1027.2
20260830211536 48 19 0.0 0.9 0.00 0.01 0.00 94 1027.1
20260830210032 47 23 0.0 0.9 0.00 0.01 0.00 93 1027.2
20260830204528 46 23 0.0 0.9 0.00 0.01 0.00 93 1026.9
20260830203026 46 23 0.0 0.9 0.00 0.01 0.00 92 1026.8
20260830201523 47 23 0.0 0.9 0.00 0.01 0.00 92 1026.6
20260830200021 47 23 0.0 0.9 0.00 0.01 0.00 92 1026.6
20260830194522 48 23 0.0 1.7 0.00 0.01 0.00 92 1026.4
20260830193019 48 23 0.0 0.9 0.00 0.01 0.00 92 1026.2
20260830191520 48 23 0.0 2.6 0.00 0.01 0.00 92 1026.0
20260830190021 48 23 0.0 1.7 0.00 0.01 0.00 92 1025.9
20260830184523 48 23 0.9 2.6 0.00 0.01 0.00 92 1025.9
20260830183015 48 24 0.9 3.5 0.00 0.01 0.00 93 1026.1
20260830181514 47 30 0.0 1.7 0.00 0.01 0.00 92 1026.1
20260830180013 48 30 0.0 0.0 0.00 0.01 0.00 91 1026.3
20260830174511 48 30 0.0 1.7 0.00 0.01 0.00 92 1026.2
20260830173010 48 30 0.9 1.7 0.00 0.01 0.00 92 1026.2
20260830171509 48 30 0.9 2.6 0.00 0.01 0.00 93 1026.3
20260830170007 47 103 0.0 0.0 0.00 0.01 0.00 91 1026.6
20260830164506 48 103 0.0 0.0 0.00 0.01 0.00 91 1026.6
20260830163003 48 103 0.0 0.9 0.00 0.01 0.00 91 1026.5
20260830161501 48 103 0.0 0.0 0.00 0.01 0.00 91 1026.6
20260830160059 48 103 0.0 0.0 0.00 0.01 0.00 91 1026.5
20260830154558 49 103 0.0 0.0 0.00 0.01 0.00 91 1026.6
20260830153056 49 103 0.0 0.0 0.00 0.01 0.00 91 1026.6
20260830151607 49 103 0.0 0.0 0.00 0.01 0.00 90 1026.6
20260830150100 50 103 0.0 0.0 0.00 0.01 0.00 89 1026.5
20260830144551 50 103 0.0 0.0 0.00 0.01 0.00 89 1026.7
20260830143049 51 103 0.0 1.7 0.00 0.01 0.00 89 1026.7
20260830141548 51 103 0.0 0.0 0.00 0.01 0.00 90 1026.7
20260830140046 51 103 0.0 0.0 0.00 0.01 0.00 89 1026.7
20260830134545 51 103 0.0 0.0 0.00 0.01 0.01 88 1026.7
20260830133044 51 103 0.0 0.0 0.00 0.01 0.01 88 1026.8
20260830131549 51 103 0.0 0.0 0.00 0.01 0.01 88 1026.9
20260830130053 52 103 0.0 0.0 0.00 0.01 0.01 88 1026.7
20260830124543 52 103 0.0 0.0 0.00 0.01 0.01 87 1026.6
20260830123143 52 103 0.0 0.0 0.00 0.01 0.01 86 1026.6
20260830121542 53 103 0.0 0.0 0.00 0.01 0.01 86 1026.7
20260830120046 53 103 0.0 0.0 0.00 0.01 0.01 86 1026.7
20260830114542 54 103 0.0 0.9 0.00 0.01 0.01 85 1026.7
20260830113040 54 103 0.0 1.7 0.00 0.01 0.01 85 1026.6
20260830111541 55 103 0.0 0.0 0.00 0.01 0.01 84 1026.3
20260830110050 55 103 0.0 0.0 0.00 0.01 0.01 83 1026.2
20260830104543 56 103 0.0 0.0 0.00 0.01 0.01 82 1026.1
20260830103038 57 103 0.0 0.0 0.00 0.01 0.01 80 1026.1
20260830101538 57 103 0.0 0.0 0.00 0.01 0.01 79 1026.0
20260830100049 58 103 0.0 0.0 0.00 0.01 0.01 77 1025.7
20260830094537 59 103 0.0 0.0 0.00 0.01 0.01 75 1025.6
20260830093037 60 103 0.0 0.0 0.00 0.01 0.01 73 1025.5
20260830091540 61 103 0.0 0.0 0.00 0.01 0.01 71 1025.5
20260830090035 62 103 0.0 1.7 0.00 0.01 0.01 69 1025.4
20260830084610 63 103 0.9 1.7 0.00 0.01 0.01 67 1025.3
20260830083037 64 103 0.9 1.7 0.00 0.01 0.01 65 1025.2
20260830081540 65 103 0.0 0.9 0.00 0.01 0.01 62 1024.9
20260830080034 66 103 0.0 0.0 0.00 0.01 0.01 59 1024.7
20260830074542 68 103 0.0 1.7 0.00 0.01 0.01 57 1024.5
20260830073033 69 103 0.0 1.7 0.00 0.01 0.01 53 1024.5
20260830071533 70 101 0.9 5.2 0.00 0.01 0.01 50 1024.4
20260830070032 72 87 2.6 5.2 0.00 0.01 0.01 45 1024.3
20260830064532 72 93 0.0 5.2 0.00 0.01 0.01 43 1024.2
20260830063031 73 94 1.7 6.1 0.00 0.01 0.01 40 1024.2
20260830061532 74 151 0.9 5.2 0.00 0.01 0.01 37 1024.2
20260830060030 75 107 0.9 7.0 0.00 0.01 0.01 33 1024.3
20260830054528 75 131 1.7 6.1 0.00 0.01 0.01 30 1024.4